Regional Weather Roundup
Issued by NWS

Home | Current Version | Previous Version | Text Only | Print | Product List | Glossary On
Versions: 1 2 3 4 5 6 7 8 9 10 11 12 13 14 15 16 17 18 19 20 21 22 23 24 25 26 27 28 29 30 31 32 33 34 35 36 37 38 39 40 41 42 43 44 45 46 47 48 49 50
000
ASUS44 KLUB 270701
RWRTX
WEST TEXAS WEATHER ROUNDUP
NATIONAL WEATHER SERVICE LUBBOCK TX
200 AM CDT FRI MAY 27 2016

NOTE: "FAIR" INDICATES FEW OR NO CLOUDS BELOW 12,000 FEET WITH NO
SIGNIFICANT WEATHER AND/OR OBSTRUCTIONS TO VISIBILITY.

TXZ004-006>008-010-012-014-016-OKZ002-270800-
TEXAS PANHANDLE/OKLAHOMA PANHANDLE

CITY           SKY/WX    TMP DP  RH WIND       PRES   REMARKS
AMARILLO       PTCLDY    55  41  59 N12       29.78F
BORGER         PTCLDY    59  43  55 NE13      29.77S
CANADIAN       PTCLDY    62  48  61 N10       29.70F
DALHART        CLEAR     55  40  56 N13       29.80F
DUMAS          CLEAR     51  42  70 N12       29.78F
GUYMON         CLEAR     50  41  71 NW10      29.78F
HEREFORD       CLEAR     49  27  42 NW9       29.79R
$$

TXZ026-029-035-045-048-270800-
SOUTHERN PANHANDLE/SOUTH PLAINS/ROLLING PLAINS

CITY           SKY/WX    TMP DP  RH WIND       PRES   REMARKS
CHILDRESS      CLOUDY    68  64  87 S9        29.66F
LUBBOCK        MOCLDY    66  38  35 W9        29.76F
SNYDER           N/A     67  60  80 SW5       29.70F
$$

TXZ052-054-060>062-072-078-127-140-154-169-270800-
PERMIAN BASIN/CONCHO VALLEY/BIG COUNTRY/EDWARDS PLATEAU

CITY           SKY/WX    TMP DP  RH WIND       PRES   REMARKS
ABILENE        TSTM      64  62  93 SW29G36   29.78R FOG
BROWNWOOD      CLOUDY    70  68  94 SE17G25   29.69F
JUNCTION       CLOUDY    73  68  84 E5        29.70F
MIDLAND        CLEAR     70  53  54 SW8       29.76F
ODESSA         CLEAR     69  53  56 W8        29.78F
SAN ANGELO     TSTM      67  64  90 VRB7G37   29.69F VSB 1/4
WINK           PTCLDY    65  27  23 N7        29.77S
$$

TXZ055-058-074-075-080-082-270800-
FAR WEST/SOUTHWEST MOUNTAINS/TRANS PECOS

CITY           SKY/WX    TMP DP  RH WIND       PRES   REMARKS
DRYDEN           N/A     74  61  63 NW9       29.71F
EL PASO        CLEAR     70  14  11 NW9       29.90S
FORT STOCKTON  PTCLDY    71  28  20 W9        29.79S
MARFA          CLEAR     64  13  13 NW8       29.95R
$$

TXZ014-016-019-021>030-083-270800
TEXAS TECH WEST TEXAS MESONET/TEXAS PANHANDLE/NORTHERN SOUTH PLAINS

CITY           SKY/WX    TMP DP  RH WIND       PRES   REMARKS
ABERNATHY 5ENE   N/A     64  34  33 SW9       29.78F
AMARILLO 9NNE    N/A     55  41  60 NW3       29.79S
AMARILLO 7SSE    N/A     58  40  51 N15       29.80R
AMHERST 1NE      N/A     62  21  20 SW12      29.80R
BOOTLEG 11WNW    N/A     56  24  28 NW12      29.86R
CANADIAN 6E      N/A     59  50  70 W8        29.70S
CAPROCK CYN SP   N/A     68  35  29 SW14      29.72S
CHILDRESS 2NNE   N/A     68  64  85 S13       29.66F
CLARENDON 2WSW   N/A     67  59  75 SW6       29.73S
CLAUDE 12SW      N/A     60  40  46 N15       29.78R
DIMMITT 2NE      N/A     56  21  25 W13       29.79R
FLOYDADA 2NNE    N/A     63  53  69 S6        29.75F
FRIONA 2NE       N/A     59  20  21 NW18G24   29.82R
GOODLETT 3W      N/A     69  64  84 SE13      29.67F
HART 3N          N/A     54  30  40 SW10      29.79R
HEREFORD 2NW     N/A     59  25  27 NW15      29.81R
MCLEAN 1E        N/A     65  63  93 W8        29.72F
MEMPHIS 1NE      N/A     71  60  67 S3        29.67F
MULESHOE 2SSW    N/A     48  24  39 SW8       29.81R
OLTON 6S         N/A     60  28  29 W10       29.77S
PALO DURO SP     N/A     62  38  42 N13       29.79R
PAMPA 2E         N/A     57  45  63 NW15G21   29.77F
PLAINVIEW 1S     N/A     66  29  25 SW6       29.78S
SILVERTON 7ESE   N/A     59  37  44 SW13      29.73S
TULIA 2ENE       N/A     58  27  30 SW8       29.77R
TURKEY 2WSW      N/A     71  53  53 SW13      29.70F
UMBARGER 3NNE    N/A     53  28  38 N6        29.81R
$$

TXZ033>036-039>041-045>048-270800
TEXAS TECH WEST TEXAS MESONET/SOUTH PLAINS

CITY           SKY/WX    TMP DP  RH WIND       PRES   REMARKS
AIKEN 3WSW       N/A     58  37  45 SW8       29.78F
ANDREWS 2NE      N/A     71  53  52 W8        29.82S
ANTON 6SSW       N/A     65  27  24 SW7       29.78F
BROWNFIELD 2S    N/A     65  31  28 W7        29.80F
DENVR CTY 7WNW   N/A     64  22  20 W8        29.83S
GAIL 2ESE        N/A     64  60  85 SE1       29.71F
LAMESA 2SE       N/A     68  56  66 W8        29.76F
LEVELLAND 4S     N/A     67  17  15 W13       29.80S
LUBBOCK 3WNW     N/A     69  32  25 SW7       29.78F
MORTON 1ENE      N/A     63  16  16 SW9       29.82R
ODONNELL 1N      N/A     68  54  60 W14       29.76F
PLAINS 3N        N/A     64  23  20 SW5       29.83R
RALLS 1SE        N/A     67  56  67 SW10      29.75F
REESE CENTER     N/A     65  29  26 SW9       29.79F
SEAGRAVES 1SW    N/A     64  27  24 W7        29.81F
SEMINOLE 2NNE    N/A     68  25  19 W7        29.81S
SNYDER 3E        N/A     67  61  80 W8        29.68F
SUNDOWN 8SW      N/A     58  26  29 SW10      29.81S
TAHOKA 3NNE      N/A     68  55  63 W13       29.76F
$$

TXZ031-032-036>038-042>044-270800-
TEXAS TECH WEST TEXAS MESONET/ROLLING PLAINS

CITY           SKY/WX    TMP DP  RH WIND       PRES   REMARKS
ASPERMONT 3NE    N/A     70  58  66 S9        29.64F
FLUVANNA 3WNW    N/A     67  57  71 S6        29.71F
GRAHAM 5SSW      N/A     70  57  64 SW6       29.73F
GUTHRIE 10WSW    N/A     67  58  71 W1        29.67F
HASKELL 1NW      N/A     71  58  64 SE9       29.65F
JAYTON 1SSE      N/A     71  56  59 S2        29.67F
KNOX CITY 3NW    N/A     76  49  37 S10       29.65F
LK A HENRY 1NW   N/A     71  57  61 SW9       29.68F
NORTHFIELD 1S    N/A     70  60  70 S8        29.67F
ODELL 4ENE       N/A     69  65  89 SE13      29.69R
PADUCAH 10SW     N/A     67  59  75 SW9       29.68F
POST 1NE         N/A     70  57  63 SW9       29.70F
RRING SPRGS 3N   N/A     71  58  64 SW9       29.70F
SEYMOUR 3NW      N/A     69  60  75 SE12      29.68F
SPUR 1W          N/A     67  57  70 S2        29.69F
WEINERT 2NNE     N/A     72  60  66 S18       29.64F
$$

TXZ052-054-060>062-072-078-127-140-154-169-270800-
TEXAS TECH WEST TEXAS MESONET/PERMIAN BASIN/
CONCHO VALLEY/BIG COUNTRY/EDWARDS PLATEAU

CITY           SKY/WX    TMP DP  RH WIND       PRES   REMARKS
COYANOSA 2N      N/A     67  39  35 SW9       29.78S
JUNCTION 1SSW    N/A     75  72  89 SE6       29.71F
MERTZON 3NNE     N/A     65  62  90 S7        29.72F
SAN ANGELO 7NW HVY RAIN  66  62  86 S12       29.73R
STRLNG CT 4WSW   N/A     64  63  94 E5        29.73F
ST LAWRNCE 5SW   N/A     64  58  80 SE10      29.75F
WALL 1E          N/A     68  65  88 NW16G23   29.75R
$$

TXZ055-058-074-075-080-082-270800-
TEXAS TECH WEST TEXAS MESONET/FAR WEST/SOUTHWEST MOUNTAINS/TRANS PECOS

CITY           SKY/WX    TMP DP  RH WIND       PRES   REMARKS
PRSMN GAP BBNP   N/A     83  34  17 NW5       29.79R
GUADLPE MTN NP   N/A     64  11  12 W17       29.94F
$$




USA.gov is the U.S. government's official web portal to all federal, state and local government web resources and services.